STARLINK-34768, 65095

Orbit data source: Space-Track

STARLINK-34768, 65095 is a payload satellite owned by SpaceX/Seattle (US) in LEO that was launched on Mon, 04 Aug 2025 UTC via an FALCON 9 launch vehicle from the Air Force Eastern Test Range (AFETR). Payload-class satellites include a variety of spacecraft equipped with specific instruments for various scientific and technological missions. These include communications satellites like Starlink; space stations such as the ISS; scientific satellites like the Hubble; Earth observation satellites from companies like Planet Labs, Umbra, and HawkEye 360; GPS; miniature CubeSats for education and research; and military/defense satellites.

Loading next visibility...
Identifier
65095, 2025-167T
Orbit
LEO
Country
Flag of USUS
Related business
Manufacturer
SpaceX/Seattle
Mission
Operational Commercial Communications
Bus & Motor
STARLINK V2MO, Unknown motor
Mass
575 kg wet, ~530 kg dry
Launch date (UTC)
2025-08-04 (11 months ago)
Launch vehicle
FALCON 9
Launch site
Air Force Eastern Test Range (AFETR)
Object type
Payload
Rocket body
Debris
Shape & HBR
Box + 2 Pan, 17.7 m
Radar Cross Section
36.964 m², Large (>1 m²)

Expand to show TLE details & history
Last TLE update: 6 hours ago

TLE from 6 hours ago
0 STARLINK-34768
1 65095U 25167T   26174.90368488  .00013911  00000-0  42198-3 0  9994
2 65095  53.1598 248.1815 0001494  61.2244 298.8909 15.34406839 49814
Epoch: 2026-06-23T21:41Z
TLE epoch observation values (Epoch: 2026-06-23T21:41:18.373Z)
Latitude
0.00001°
Longitude
10.78638°
Altitude
463.091 km
Speed
7.636 km/s
True Right ascension
16h 32m 43s
True Declination
0° 00' 00"
Sunlit
Object was in full shadow at epoch
Visualization orbit readout
Latitude
Unknown
Longitude
Unknown
Altitude
Unknown
Speed
Unknown
Apparent Right ascension
Unknown
Apparent Declination
Unknown
Sunlit
N/A
Visualization observer readout
Local Sidereal Time
15:18:15
Azimuth
Unknown
Elevation
Unknown
Doppler factor
Unknown
Orbital elements
Apogee altitude
463.962 km
Perigee altitude
461.918 km
Semi-major axis
6,841.077 km
Eccentricity
0.00015
Inclination
53.1598°
RAAN
248.1815°
Arg. of periapsis
61.2244°
True anomaly
298.87591°
Mean anomaly
298.8909°
Eccentric anomaly
298.8834°
Mean motion
3.8358 °/min
Orbital period
93.85 mins
BSTAR
0.00042198
Loading maneuver chart data...
Computing Atmospheric mass density...
Loading historical data...
Loading historical data...
Loading historical data...
Loading historical data...
Loading historical data...
Loading historical data...
Loading historical data...

Documentation

Showing up to 5 results
|